Location: Praha
(50.0830°N, 14.4670°E)
Time: 05:59:09
(UTC+01:00)

ISS - Pass Details

Date: 10 December 2019
Orbit: 411 x 421 km, 51.6° (Epoch: 15 December)

Event Time Altitude Azimuth Distance (km) Brightness Sun altitude
Rises 16:47:41 0° 287° (WNW) 2,357 0.8 -7.4°
Reaches altitude 10° 16:49:50 10° 281° (W) 1,493 -0.1 -7.7°
Maximum altitude 16:53:02 43° 208° (SSW) 593 -2.5 -8.1°
Drops below altitude 10° 16:56:14 10° 135° (SE) 1,493 -1.1 -8.6°
Sets 16:58:23 0° 129° (SE) 2,355 -0.2 -8.9°
